Tracking 22223 objects as of 26-Jan-2021
HD Live streaming from Space Station
objects crossing your sky now

EUTE 12 WEST A (AB 1)

Track EUTE 12 WEST A (AB 1) now!
EUTE 12 WEST A (AB 1) is classified as:


NORAD ID: 27508
Int'l Code: 2002-040A
Perigee: 36,327.7 km
Apogee: 36,387.1 km
Inclination: 2.3 °
Period: 1,465.0 minutes
Semi major axis: 42728 km
RCS: 16.1652 m2 (large)
Launch date: August 28, 2002
Source: European Telecommunications Satellite Organization (EUTE)
Launch site: FRENCH GUIANA (FRGUI)

Twenty channels, telecommunications services between Europe and the Americas.
aabbcc
Your satellite tracking list
Your tracking list is empty




NASA's NSSDC Master Catalog

Two Line Element Set (TLE):
1 27508U 02040A   21025.86568574 -.00000136  00000-0  00000-0 0  9998
2 27508   2.2707  88.4523 0006952 301.1564  57.7214  0.98294359 67293
Source of the keplerian elements: AFSPC